Date,TemperatureHighF,TemperatureAvgF,TemperatureLowF,DewpointHighF,DewpointAvgF,DewpointLowF,HumidityHigh,HumidityAvg,HumidityLow,PressureMaxIn,PressureMinIn,WindSpeedMaxMPH,WindSpeedAvgMPH,GustSpeedMaxMPH,PrecipitationSumIn
2013-3-1,57.7,54.2,51.4,46.5,40.0,36.0,80,59,45,28.88,28.82,8,2,15,0.04
2013-3-2,58.1,50.6,41.1,42.3,35.2,29.5,67,56,37,28.82,28.58,10,2,13,0.55
2013-3-3,49.2,41.5,34.7,34.4,25.3,18.6,76,54,31,28.83,28.74,7,1,12,0.00
2013-3-4,53.6,41.6,30.5,25.8,18.3,13.6,69,42,23,28.83,28.44,8,2,14,0.00
2013-3-5,52.7,47.3,42.4,28.2,20.3,12.9,52,35,27,28.44,28.23,10,1,16,0.00
2013-3-6,45.1,42.9,40.2,35.9,31.9,26.2,71,65,51,28.29,28.11,3,0,6,0.31
2013-3-7,42.8,42.8,42.8,34.0,34.0,34.0,71,71,71,28.29,28.29,0,0,0,0.00
2013-3-8,42.8,42.8,42.8,34.0,34.0,34.0,71,71,71,28.29,28.29,0,0,0,0.00
2013-3-9,42.8,42.8,42.8,34.0,34.0,34.0,71,71,71,28.29,28.29,0,0,0,0.00
2013-3-10,42.8,42.8,42.8,34.0,34.0,34.0,71,71,71,28.29,28.29,0,0,0,0.00
2013-3-11,42.8,42.8,42.8,34.0,34.0,34.0,71,71,71,28.29,28.29,0,0,0,0.00
2013-3-12,42.8,42.8,42.8,34.0,34.0,34.0,71,71,71,28.29,28.29,0,0,0,0.00
2013-3-13,42.8,42.8,42.8,34.0,34.0,34.0,71,71,71,28.29,28.29,0,0,0,0.00
2013-3-14,42.8,42.8,42.8,34.0,34.0,34.0,71,71,71,28.29,28.29,0,0,0,0.00
2013-3-15,59.5,49.8,42.8,39.4,34.8,32.7,71,58,37,30.10,28.29,7,2,11,0.00
2013-3-16,51.0,48.0,42.2,40.4,30.1,22.5,69,50,38,30.05,29.81,8,3,17,0.04
2013-3-17,49.6,43.5,39.2,32.6,24.0,19.9,69,47,31,30.11,29.90,8,2,13,0.08
2013-3-18,51.4,44.1,38.1,36.3,25.0,21.6,73,47,32,30.17,30.05,9,2,15,0.04
2013-3-19,56.8,43.8,34.5,34.6,25.0,18.1,71,50,22,30.17,29.54,9,2,15,0.24
2013-3-20,52.1,47.3,41.5,44.5,32.2,20.1,81,58,38,29.93,29.33,15,4,23,0.51
2013-3-21,48.7,41.8,37.7,28.4,23.8,20.6,67,49,33,30.14,29.93,7,2,13,0.04
2013-3-22,45.6,39.3,33.9,29.7,22.8,16.5,73,53,32,30.30,30.14,6,1,9,0.08
2013-3-23,49.2,40.0,33.0,23.4,19.0,15.0,65,45,27,30.33,30.23,5,1,9,0.00
2013-3-24,54.1,41.8,31.6,22.9,19.2,16.2,63,42,23,30.24,30.05,6,0,8,0.00
2013-3-25,60.9,48.5,33.8,24.3,18.8,14.7,51,32,19,30.05,29.86,7,1,10,0.00
2013-3-26,60.6,51.7,44.9,28.2,25.1,22.3,48,36,25,29.96,29.86,7,1,10,0.00
2013-3-27,58.4,50.9,45.3,36.0,30.2,26.7,58,45,31,29.93,29.87,5,0,7,0.00
2013-3-28,61.5,51.6,44.2,42.5,34.4,30.1,77,54,31,30.08,29.93,7,1,9,0.04
2013-3-29,63.6,53.2,44.4,37.0,32.1,27.9,69,47,28,30.17,30.08,6,1,11,0.00
2013-3-30,67.1,53.3,40.6,34.1,29.8,26.7,68,43,24,30.20,30.01,7,1,10,0.00
2013-3-31,70.1,55.9,41.9,35.4,30.8,28.2,66,41,23,30.02,29.83,6,1,8,0.00